Location: Unspecified
(33.9239°N, 118.0544°W)
Time: 09:45:05
(UTC-07:00)

Cosmos 2058 - Visible Passes

Search period start: 25 July 2017 00:00
Search period end: 04 August 2017 00:00
Orbit: 563 x 586 km, 82.5° (Epoch: 25 July)

Date Brightness Start Highest point End Pass type
(mag) Time Alt. Az. Time Alt. Az. Time Alt. Az.
31 Jul 6.0 04:27:54 10° NE 04:29:58 13° ENE 04:32:01 10° ESE visible
01 Aug 5.8 04:30:32 10° NNE 04:33:24 18° ENE 04:36:16 10° ESE visible
02 Aug 5.2 04:33:26 10° NNE 04:36:50 24° ENE 04:40:11 10° SE visible
03 Aug 4.6 04:36:29 10° NNE 04:40:13 33° E 04:43:56 10° SE visible
